Tracking 33485 objects as of 15-Mar-2026
HD Live streaming from Space Station
objects crossing your sky now

STARLINK-36630

Track STARLINK-36630 now!
10-day predictions
STARLINK-36630 is classified as:


NORAD ID: 67703
Int'l Code: 2026-025L
Perigee: 350.0 km
Apogee: 352.3 km
Inclination: 97.3 °
Period: 91.4 minutes
Semi major axis: 6722 km
RCS: Unknown
Launch date: February 7, 2026
Source: United States (US)
Launch site: AIR FORCE WESTERN TEST RANGE (AFWTR)
Your satellite tracking list
Your tracking list is empty




NASA's NSSDC Master Catalog

Two Line Element Set (TLE):
1 67703U 26025L   26074.26754970  .00299520  00000-0  19379-2 0  9995
2 67703  97.2838 186.2076 0001738  77.1519 282.9940 15.75208082  6829
Source of the keplerian elements: AFSPC